Location: Unspecified
(0.0000°N, 0.0000°E)
Time: 03:43:49
(UTC+00:00)

Vanguard 3 - All Passes

Search period start: 17 October 2017 00:00
Search period end: 27 October 2017 00:00
Orbit: 510 x 3263 km, 33.3° (Epoch: 16 October)

Date Brightness Start Highest point End Pass type
(mag) Time Alt. Az. Time Alt. Az. Time Alt. Az.
17 Oct - 00:21:54 10° SW 00:41:49 63° SE 00:57:00 10° ENE visible
17 Oct - 02:39:52 10° WSW 02:58:09 58° NW 03:09:44 10° NE visible
17 Oct - 05:05:28 10° WNW 05:12:26 16° NW 05:17:51 10° N visible
17 Oct - 11:57:11 10° NNE 11:58:54 12° NE 12:00:47 10° ENE daylight
17 Oct - 14:05:48 10° WNW 14:10:09 56° SSW 14:17:14 10° SE daylight
17 Oct - 16:20:01 10° SW 16:24:29 16° SSW 16:30:25 10° SSE daylight
17 Oct - 18:39:11 10° SSW 18:42:50 11° S 18:46:55 10° SSE visible
17 Oct - 20:52:48 10° SSW 21:04:12 20° SSE 21:17:07 10° ESE visible
17 Oct - 23:06:06 10° SW 23:24:23 45° SSE 23:40:53 10° E visible
18 Oct - 01:21:55 10° SW 01:42:08 85° NW 01:56:09 10° NE visible
18 Oct - 03:43:16 10° W 03:57:18 31° NW 04:06:45 10° NNE visible
18 Oct - 12:52:58 10° NW 12:56:45 56° NE 13:02:07 10° ESE daylight
18 Oct - 15:05:06 10° WSW 15:09:21 22° SSW 15:15:30 10° SSE daylight
18 Oct - 17:24:07 10° SSW 17:25:39 10° S 17:27:18 10° S daylight
18 Oct - 19:38:58 10° SSW 19:45:50 14° SSE 19:53:49 10° SE visible
18 Oct - 21:51:09 10° SSW 22:06:33 32° SSE 22:22:46 10° E visible
19 Oct - 00:05:14 10° SW 00:25:18 71° SE 00:41:28 10° ENE visible
19 Oct - 02:23:25 10° WSW 02:41:47 52° NW 02:54:06 10° NE visible
19 Oct - 04:50:20 10° WNW 04:56:53 14° NW 05:02:08 10° N visible
19 Oct - 11:41:07 10° N 11:43:39 17° NE 11:46:26 10° E daylight
19 Oct - 13:51:05 10° W 13:55:04 37° SSW 14:00:59 10° SE daylight
19 Oct - 16:07:14 10° SSW 16:09:33 11° SSW 16:12:13 10° S daylight
19 Oct - 20:37:00 10° SSW 20:48:33 22° SSE 21:02:02 10° ESE visible
19 Oct - 22:49:38 10° SW 23:07:56 51° SE 23:25:23 10° ENE visible
20 Oct - 01:05:20 10° WSW 01:25:34 76° NW 01:40:28 10° NE visible
20 Oct - 03:27:21 10° W 03:41:18 28° NW 03:51:06 10° NNE visible
20 Oct - 12:37:50 10° NW 12:41:33 84° NNE 12:46:32 10° SE daylight
20 Oct - 14:51:17 10° SW 14:54:23 15° SSW 14:58:21 10° SSE daylight
20 Oct - 19:23:56 10° S 19:30:36 14° SSE 19:38:26 10° SE visible
20 Oct - 21:34:57 10° SSW 21:50:21 36° SSE 22:07:23 10° E visible
20 Oct - 23:48:43 10° SW 00:08:39 79° SE 00:25:46 10° ENE visible
21 Oct - 02:07:08 10° WSW 02:25:24 47° NW 02:38:23 10° NNE visible
21 Oct - 04:35:18 10° WNW 04:41:23 13° NNW 04:46:26 10° N visible
21 Oct - 11:25:21 10° NNW 11:28:26 24° NE 11:31:43 10° E daylight
21 Oct - 13:36:36 10° W 13:40:02 25° SSW 13:44:40 10° SSE daylight
21 Oct - 20:21:10 10° SSW 20:32:47 24° SSE 20:46:50 10° ESE visible
21 Oct - 22:33:16 10° SW 22:51:22 57° SE 23:09:42 10° ENE visible
22 Oct - 00:48:56 10° WSW 01:08:56 69° NW 01:24:40 10° NE visible
22 Oct - 03:11:37 10° W 03:25:20 26° NW 03:35:24 10° NNE visible
22 Oct - 12:22:48 10° WNW 12:26:26 62° SW 12:30:54 10° SE daylight
22 Oct - 19:08:39 10° S 19:15:18 14° SSE 19:23:13 10° SE visible
22 Oct - 21:18:50 10° SSW 21:34:03 39° SE 21:51:47 10° E visible
22 Oct - 23:32:20 10° SW 23:51:55 87° SE 00:09:53 10° NE visible
23 Oct - 01:51:01 10° W 02:09:00 42° NW 02:22:33 10° NNE visible
23 Oct - 04:20:18 10° NW 04:25:58 13° NNW 04:30:46 10° N visible
23 Oct - 11:09:43 10° NW 11:13:17 37° NE 11:16:50 10° ESE daylight
23 Oct - 13:22:25 10° WSW 13:25:01 16° SSW 13:28:09 10° SSE daylight
23 Oct - 20:05:20 10° SSW 20:16:53 26° SSE 20:31:26 10° E visible
23 Oct - 22:17:02 10° SW 22:34:42 63° SE 22:53:48 10° ENE visible
24 Oct - 00:32:42 10° WSW 00:52:15 62° NW 01:08:43 10° NE visible
24 Oct - 02:56:01 10° W 03:09:24 24° NNW 03:19:39 10° NNE visible
24 Oct - 09:57:23 10° N 09:59:45 14° NNE 10:01:52 10° ENE daylight
24 Oct - 12:07:53 10° WNW 12:11:20 38° SSW 12:15:14 10° SE daylight
24 Oct - 18:53:11 10° S 18:59:53 15° SSE 19:08:03 10° ESE visible
24 Oct - 21:02:47 10° SSW 21:17:38 44° SE 21:35:58 10° ENE visible
24 Oct - 23:16:08 10° SW 23:35:08 86° NW 23:53:50 10° NE visible
25 Oct - 01:35:06 10° W 01:52:38 38° NW 02:06:38 10° NNE visible
25 Oct - 04:05:16 10° NW 04:10:38 12° NNW 04:15:16 10° N visible
25 Oct - 10:54:10 10° NW 10:58:10 61° NE 11:01:49 10° ESE daylight
25 Oct - 13:09:36 10° SSW 13:09:59 10° SSW 13:10:25 10° SSW daylight
25 Oct - 19:49:30 10° SSW 20:00:53 28° SE 20:15:53 10° E visible
25 Oct - 22:00:56 10° SW 22:17:59 70° SE 22:37:41 10° ENE visible
26 Oct - 00:16:39 10° WSW 00:35:35 56° NW 00:52:37 10° NE visible
26 Oct - 02:40:36 10° WNW 02:53:33 22° NNW 03:03:53 10° NNE visible
26 Oct - 09:40:55 10° NNW 09:44:42 22° NNE 09:47:46 10° E daylight
26 Oct - 11:53:07 10° W 11:56:13 24° SSW 11:59:28 10° SSE daylight
26 Oct - 18:37:36 10° S 18:44:23 16° SSE 18:52:54 10° ESE visible
26 Oct - 20:46:50 10° SW 21:01:09 49° SE 21:19:56 10° ENE visible
